Philadelphia, PA

7:46 PM EDT on May 22, 2018 (GMT -0400)
Philadelphia International

Weather History for KPHL - April, 2013

Change the Weather History Date:

Tuesday, April 30, 2013

  Actual Average Record
Temperature  
Mean Temperature 60 °F 59 °F  
Max Temperature 71 °F 69 °F 91 °F (1888)
Min Temperature 48 °F 49 °F 34 °F (1874)
Degree Days  
Heating Degree Days 5 7  
Month to date heating degree days 316 343  
Since 1 July heating degree days 4253 4490  
Cooling Degree Days 0 1  
Month to date cooling degree days 17 12  
Year to date cooling degree days 17 13  
Growing Degree Days 12 (Base 50)    
Moisture  
Dew Point 46 °F    
Average Humidity 64    
Maximum Humidity 93    
Minimum Humidity 34    
Precipitation  
Precipitation 0.01 in 0.10 in 4.42 in (2014)
Month to date precipitation 2.32 3.56  
Year to date precipitation 10.20 13.03  
Snow  
Snow 0.00 in 0.00 in 0.00 in ()
Month to date snowfall 0.0 0.5  
Since 1 July snowfall 8.3 22.4  
Snow Depth 0.00 in    
Sea Level Pressure  
Sea Level Pressure 30.22 in    
Wind  
Wind Speed 11 mph (ENE)    
Max Wind Speed 15 mph    
Max Gust Speed 18 mph    
Visibility 9 miles    
Events Rain    
T = Trace of Precipitation, MM = Missing Value Source: NWS Daily Summary

Daily Weather History Graph

Daily Weather History Graph

Search for Another Location

Airport or City:

Astronomy

Apr. 30, 2013 Rise Set
Actual Time 6:02 AM EDT 7:54 PM EDT
Civil Twilight 5:33 AM EDT 8:23 PM EDT
Nautical Twilight 4:57 AM EDT 8:59 PM EDT
Astronomical Twilight 4:19 AM EDT 9:37 PM EDT
Moon 12:15 AM EDT (4/30) 10:28 AM EDT (4/30)
Length of Visible Light 14h 50m
Length of Day
13h 52m
Waning Gibbous, 70% of the Moon is Illuminated
Apr 30
Waning Gibbous
May 2
Last Quarter
May 9
New
May 18
First Quarter
May 25
Full

Hourly Weather History & Observations

Time (EDT) Temp. Dew Point Humidity Pressure Visibility Wind Dir Wind Speed Gust Speed Precip Events Conditions
12:07 AM 55.4 °F 51.8 °F 88% 30.18 in 10.0 mi East 6.9 mph - N/A   Overcast
12:54 AM 55.0 °F 52.0 °F 89% 30.17 in 10.0 mi East 10.4 mph - N/A   Overcast
1:54 AM 55.0 °F 52.0 °F 89% 30.17 in 10.0 mi East 10.4 mph - N/A   Overcast
1:58 AM 53.6 °F 51.8 °F 94% 30.17 in 8.0 mi East 9.2 mph - N/A   Overcast
2:02 AM 53.6 °F 51.8 °F 94% 30.17 in 6.0 mi East 9.2 mph - N/A   Overcast
2:05 AM 53.6 °F 51.8 °F 94% 30.17 in 4.0 mi East 8.1 mph - N/A   Overcast
2:24 AM 53.6 °F 51.8 °F 94% 30.17 in 2.5 mi East 9.2 mph - N/A   Overcast
2:36 AM 53.6 °F 51.8 °F 94% 30.17 in 4.0 mi East 10.4 mph - N/A   Overcast
2:41 AM 53.6 °F 51.8 °F 94% 30.17 in 7.0 mi East 10.4 mph - N/A   Overcast
2:54 AM 54.0 °F 51.1 °F 90% 30.17 in 7.0 mi East 11.5 mph - N/A   Overcast
3:34 AM 53.6 °F 50.0 °F 88% 30.17 in 10.0 mi East 11.5 mph - 0.00 in   Overcast
3:50 AM 53.6 °F 50.0 °F 88% 30.18 in 8.0 mi East 11.5 mph - 0.00 in Rain Light Rain
3:54 AM 53.1 °F 50.0 °F 89% 30.18 in 7.0 mi East 8.1 mph - 0.00 in Rain Light Rain
4:06 AM 53.6 °F 50.0 °F 88% 30.18 in 6.0 mi ENE 9.2 mph - 0.00 in Rain Light Rain
4:28 AM 51.8 °F 50.0 °F 94% 30.18 in 4.0 mi ENE 8.1 mph - 0.01 in Rain Light Rain
4:37 AM 51.8 °F 50.0 °F 94% 30.19 in 5.0 mi NE 9.2 mph - 0.01 in Rain Light Rain
4:54 AM 52.0 °F 50.0 °F 93% 30.19 in 6.0 mi ENE 9.2 mph - 0.01 in   Overcast
4:56 AM 51.8 °F 50.0 °F 94% 30.19 in 7.0 mi ENE 6.9 mph - N/A   Overcast
5:09 AM 51.8 °F 50.0 °F 94% 30.19 in 7.0 mi NE 6.9 mph - N/A   Overcast
5:20 AM 51.8 °F 48.2 °F 88% 30.19 in 8.0 mi NE 8.1 mph - N/A   Overcast
5:35 AM 53.6 °F 50.0 °F 88% 30.19 in 10.0 mi East 6.9 mph - N/A   Overcast
5:48 AM 53.6 °F 48.2 °F 82% 30.20 in 10.0 mi ENE 10.4 mph - N/A   Overcast
5:54 AM 53.1 °F 48.9 °F 86% 30.20 in 10.0 mi ENE 8.1 mph - N/A   Overcast
5:57 AM 53.6 °F 48.2 °F 82% 30.20 in 10.0 mi ENE 8.1 mph - N/A   Overcast
6:54 AM 53.1 °F 48.9 °F 86% 30.22 in 10.0 mi East 11.5 mph - N/A   Overcast
7:54 AM 55.0 °F 50.0 °F 83% 30.24 in 10.0 mi ENE 6.9 mph - 0.00 in   Overcast
8:54 AM 57.0 °F 48.0 °F 72% 30.25 in 10.0 mi ENE 9.2 mph 16.1 mph N/A   Overcast
9:54 AM 59.0 °F 48.0 °F 67% 30.25 in 10.0 mi ENE 10.4 mph - N/A   Mostly Cloudy
10:54 AM 62.1 °F 46.9 °F 58% 30.25 in 10.0 mi East 15.0 mph - N/A   Mostly Cloudy
11:54 AM 66.0 °F 46.0 °F 48% 30.25 in 10.0 mi ESE 17.3 mph - N/A   Mostly Cloudy
12:54 PM 68.0 °F 45.0 °F 43% 30.23 in 10.0 mi ESE 16.1 mph - N/A   Mostly Cloudy
1:54 PM 69.1 °F 43.0 °F 39% 30.23 in 10.0 mi East 10.4 mph - N/A   Mostly Cloudy
2:54 PM 70.0 °F 43.0 °F 38% 30.23 in 10.0 mi ENE 11.5 mph 19.6 mph N/A   Mostly Cloudy
3:54 PM 70.0 °F 43.0 °F 38% 30.24 in 10.0 mi East 15.0 mph 20.7 mph N/A   Mostly Cloudy
4:54 PM 68.0 °F 39.9 °F 36% 30.26 in 10.0 mi East 11.5 mph - N/A   Mostly Cloudy
5:54 PM 64.9 °F 36.0 °F 34% 30.27 in 10.0 mi East 13.8 mph - N/A   Mostly Cloudy
6:54 PM 63.0 °F 34.0 °F 34% 30.28 in 10.0 mi East 13.8 mph - N/A   Mostly Cloudy
7:54 PM 60.1 °F 32.0 °F 35% 30.30 in 10.0 mi East 11.5 mph - N/A   Mostly Cloudy
8:54 PM 57.0 °F 32.0 °F 39% 30.30 in 10.0 mi ENE 13.8 mph - N/A   Scattered Clouds
9:54 PM 55.0 °F 33.1 °F 43% 30.32 in 10.0 mi East 13.8 mph - N/A   Partly Cloudy
10:54 PM 53.1 °F 35.1 °F 50% 30.32 in 10.0 mi East 6.9 mph - N/A   Partly Cloudy
11:54 PM 50.0 °F 35.1 °F 57% 30.33 in 10.0 mi ENE 5.8 mph - N/A   Clear